RH
24 25 25 25 25 25 22 19 19 20 21 20 20 20 19 17 16 15 14 12 10 8 7 5 5 5 6 7 7 8 8 8 8 9 10 9 9 9 8 8 6 5 4 5 6 9 11 11 9 7 6 4 4 4 3 3 2 3 2 2 2 2 3 2 2 2 2 3 2 3 2 2 2 2 2 2 2 2 2 2 2 2 2 2 2 2 2 2
22 22 22 23 23 23 17 11 11 15 17 18 17 17 15 14 13 12 12 10 8 7 5 5 5 5 5 6 6 6 6 6 7 8 8 8 8 7 7 5 4 4 6 8 10 11 10 8 6 4 4 4 4 4 3 3 3 3 2 2 3 2 3 2 3 3 3 3 3 3 3 3 3 2 2 2 2 2 2 2 2 2 2 2 2 2 2 2
22 21 20 20 22 23 16 9 11 13 15 16 15 14 13 12 12 11 10 8 6 5 5 5 5 5 5 5 5 5 6 7 7 8 8 7 7 6 5 4 5 7 10 12 11 9 7 5 4 4 4 4 4 3 3 3 3 3 3 3 3 3 3 3 3 3 3 3 3 3 3 3 3 3 3 2 3 2 2 2 2 2 2 2 2 2 2 2
21 22 21 20 20 22 17 13 13 14 14 15 14 12 12 11 11 10 8 6 6 5 5 5 5 5 5 4 4 5 7 7 7 7 7 6 5 4 4 6 9 12 12 11 8 6 5 4 4 4 4 4 3 3 3 3 3 3 3 3 3 3 3 3 3 3 3 3 3 3 3 3 3 3 3 3 3 3 3 2 2 2 2 2 2 2 2 2
15 17 20 19 18 20 19 16 14 14 13 13 13 12 12 11 10 8 7 6 5 5 4 4 4 4 4 4 5 6 7 7 7 6 5 5 4 5 8 11 12 12 10 8 6 5 4 4 4 4 3 3 3 3 3 3 3 3 3 3 3 3 3 3 3 3 3 3 3 3 3 3 3 3 3 3 3 3 3 3 3 3 3 3 2 2 2 2
11 12 14 16 16 17 18 16 14 13 12 13 13 12 11 10 8 6 6 5 5 5 4 4 4 4 4 4 5 6 6 6 6 5 4 5 6 9 12 13 12 9 7 6 5 4 4 4 3 4 3 3 3 3 3 3 3 3 3 3 3 3 3 3 3 3 3 3 3 3 3 3 3 3 3 3 3 3 3 3 3 3 3 3 3 3 3 3
10 11 11 12 13 14 16 15 14 13 12 12 12 11 9 7 6 6 6 5 4 4 4 4 4 4 4 4 5 6 6 5 5 5 5 7 10 13 13 11 9 7 6 5 4 4 4 4 3 4 3 3 3 3 3 3 3 3 3 3 3 3 3 3 3 3 3 3 3 3 3 3 3 3 3 4 3 3 4 3 4 3 3 3 3 3 3 3
10 10 10 10 11 11 12 12 12 11 11 10 9 8 7 6 6 5 5 4 4 4 4 4 4 4 4 4 5 5 5 5 4 6 8 11 13 13 11 9 7 6 5 5 4 4 4 3 3 3 3 3 3 3 3 3 3 3 3 3 3 3 3 3 3 3 3 3 3 3 3 3 3 3 3 4 3 4 4 4 4 4 4 4 4 4 4 4
10 9 9 9 9 9 9 9 9 9 8 7 7 6 6 5 5 5 4 4 4 4 4 4 4 5 4 4 5 5 5 5 6 9 12 13 12 11 9 7 6 5 5 4 4 3 3 3 3 3 3 3 3 3 3 3 3 3 3 3 3 3 3 3 3 3 3 3 4 4 4 4 4 4 4 4 4 4 4 4 4 4 4 4 4 4 4 4
8 8 8 7 7 7 7 7 7 6 6 6 6 5 5 5 5 4 4 4 4 4 4 4 4 4 4 5 5 5 6 8 11 13 13 12 10 9 8 7 6 5 4 4 4 3 3 3 3 3 3 3 3 3 3 3 3 3 3 3 3 3 3 3 3 4 4 4 4 4 4 4 4 4 4 4 4 4 4 4 4 4 4 4 5 4 5 5
8 7 7 8 7 7 7 7 6 6 5 5 5 5 4 4 4 4 4 4 4 4 4 4 4 4 5 4 5 7 10 13 14 14 12 10 9 8 7 6 5 5 4 4 4 3 4 3 3 3 3 3 3 3 3 3 3 3 3 3 3 3 3 3 3 3 3 4 4 4 4 4 4 4 4 4 4 4 4 4 4 4 5 5 5 5 5 5
10 11 11 11 11 9 9 7 6 5 5 5 4 4 4 4 4 4 4 4 4 4 4 4 4 4 5 6 9 12 13 14 13 11 10 9 8 7 6 5 5 5 4 4 4 3 3 3 3 3 3 3 3 3 3 3 3 3 3 3 3 3 3 3 3 3 3 4 4 4 4 4 4 4 4 4 4 5 4 4 4 4 5 5 5 5 5 5
17 16 16 14 12 10 8 7 5 5 4 4 4 4 4 4 4 4 4 4 4 4 4 4 5 6 9 12 14 14 13 12 11 10 9 8 7 7 6 5 5 4 4 3 3 3 3 3 3 3 3 3 2 3 2 3 3 2 3 3 3 3 3 3 3 3 3 3 4 4 4 4 4 4 4 4 4 4 4 4 5 5 5 5 5 5 5 6
20 16 13 10 7 6 5 4 4 3 3 3 3 3 3 3 4 4 4 4 4 4 5 7 10 12 15 15 15 14 12 11 10 9 8 7 7 6 5 5 4 4 3 3 3 2 2 2 2 2 2 2 2 2 2 2 2 3 3 3 3 3 3 3 3 3 4 4 4 4 4 4 4 4 4 4 4 4 4 5 5 5 5 5 5 5 5 5
15 10 7 6 4 4 3 3 3 3 3 3 3 3 3 3 3 4 4 5 7 9 11 14 15 15 15 14 13 12 10 9 8 8 7 6 5 5 4 3 3 3 3 2 2 2 2 2 2 2 2 2 2 2 2 2 2 3 3 3 3 3 3 3 3 3 4 4 4 4 4 4 4 4 4 4 4 4 4 5 5 5 5 5 5 5 6 6
19 14 9 7 5 4 4 3 4 3 3 4 4 4 5 6 7 9 10 12 14 16 16 16 15 14 14 12 11 10 8 8 7 6 5 4 4 3 3 3 2 2 2 2 2 2 2 2 2 2 2 2 2 2 2 2 3 3 3 3 3 3 3 3 4 3 4 4 4 4 4 4 4 4 4 4 4 4 4 5 5 5 5 5 5 5 6 6
32 27 21 16 12 9 8 8 8 9 10 11 11 13 13 15 16 17 17 17 17 17 16 14 13 13 11 10 9 7 6 5 5 4 4 3 3 3 3 3 3 2 3 2 2 2 2 3 2 3 3 2 3 3 3 3 3 3 3 3 3 3 3 3 4 3 4 4 3 4 4 4 4 4 4 4 4 4 4 5 5 5 5 5 5 6 6 6
34 32 28 25 22 19 18 17 18 18 19 19 19 19 19 18 18 17 16 15 14 13 12 11 11 10 9 7 6 5 4 4 4 3 3 3 3 3 3 3 3 3 3 3 3 3 3 3 3 3 3 3 3 3 3 3 3 3 3 3 3 3 3 3 3 3 4 3 4 4 3 4 4 4 4 4 4 4 5 5 5 5 5 6 5 6 6 6
28 27 26 25 24 23 22 21 21 20 19 19 18 17 16 15 14 14 13 12 12 11 11 9 8 7 5 5 4 3 4 4 4 4 3 4 3 4 3 3 3 3 3 3 3 3 3 3 3 3 3 3 3 3 3 3 3 3 3 3 3 3 3 3 3 3 3 3 3 3 3 4 4 4 4 4 5 4 4 5 5 5 5 6 6 6 6 7
23 22 21 21 20 19 19 18 17 17 16 15 14 14 13 12 12 11 11 11 10 9 8 7 5 5 4 4 4 4 4 4 4 4 4 4 4 4 4 4 4 4 4 3 4 4 4 4 4 4 5 5 5 5 6 6 6 6 6 6 5 5 5 3 4 3 3 4 4 4 4 3 4 4 4 4 5 4 4 5 5 5 5 5 6 6 7 7
20 19 18 17 16 15 15 14 14 13 13 12 12 11 10 10 10 9 9 8 7 6 5 4 4 4 4 4 4 4 4 4 5 5 5 5 4 5 4 4 4 4 4 5 5 6 6 6 6 7 9 9 9 10 10 10 10 10 10 9 8 8 7 6 5 5 5 5 4 4 4 4 4 4 5 5 5 5 5 5 5 5 5 6 6 7 8 8
17 16 15 14 14 13 12 12 11 11 10 10 9 9 8 7 7 6 6 5 5 4 4 4 4 4 4 4 4 4 5 5 5 5 5 5 5 5 5 6 8 7 7 8 10 11 10 10 12 14 14 14 14 14 14 13 13 13 12 12 11 10 10 9 8 7 6 6 6 5 5 4 4 4 5 5 6 5 5 5 5 5 6 6 6 7 8 8
16 15 14 13 12 11 11 10 10 9 8 8 7 7 6 6 5 5 6 6 5 5 6 6 5 5 5 5 6 6 6 6 6 7 6 6 8 9 9 12 15 14 13 14 15 16 16 16 17 18 17 16 16 15 15 16 15 15 14 13 13 11 12 12 11 10 8 8 7 7 6 6 4 4 5 5 6 6 5 6 6 6 7 7 8 9 9 9
15 15 14 13 13 12 11 11 11 10 9 9 8 8 8 8 8 8 9 9 8 8 8 8 8 8 7 8 9 9 10 10 11 14 13 13 15 16 16 17 19 18 18 18 19 19 18 19 19 19 19 18 17 17 17 17 16 15 14 14 14 13 12 11 11 11 10 9 7 6 7 8 5 4 5 5 5 6 6 7 7 8 8 9 10 10 10 10
16 15 15 15 14 14 14 13 13 13 12 12 11 11 11 11 11 11 12 12 12 11 11 11 11 11 12 14 15 16 16 16 17 19 19 19 19 19 19 20 20 20 20 20 20 20 20 20 20 19 19 18 17 17 16 16 15 13 12 12 12 11 10 9 9 10 9 8 7 6 7 9 7 5 6 7 6 7 7 8 9 9 8 9 10 11 11 11
17 16 16 16 16 16 15 15 15 14 14 14 13 14 13 14 14 14 14 15 15 15 16 15 15 16 17 18 19 19 19 20 20 20 20 21 21 21 21 21 21 21 21 21 20 20 19 19 18 17 16 15 14 14 12 12 12 11 10 10 10 9 9 8 7 8 8 8 7 6 6 7 7 5 7 9 8 8 9 10 11 9 8 8 9 10 10 10
17 17 17 17 16 16 16 16 16 16 16 16 16 17 17 17 17 17 18 17 17 18 19 19 18 19 20 20 21 21 21 21 22 21 22 22 21 21 21 20 20 19 19 19 18 17 16 15 14 13 13 12 11 11 11 11 11 10 10 10 10 10 10 9 9 9 9 9 9 8 7 8 8 8 8 10 10 10 10 12 13 11 11 10 10 11 11 12
18 18 18 18 18 19 19 18 19 19 19 19 19 20 20 20 19 19 19 19 19 19 20 20 20 21 22 22 22 22 22 22 22 22 21 21 20 19 19 18 18 17 16 16 14 13 13 12 12 11 11 11 10 10 10 9 9 9 9 9 9 9 9 9 9 10 10 10 10 10 10 10 10 9 11 13 14 14 14 16 15 13 13 12 12 13 14 14
18 19 19 19 19 20 20 20 20 20 20 20 20 20 20 21 21 20 19 19 20 21 21 21 21 22 23 22 22 21 21 20 20 20 19 19 18 17 16 15 15 14 13 13 12 11 10 10 9 8 8 7 6 6 5 5 5 4 5 4 5 5 5 5 6 7 7 8 9 9 10 10 9 10 14 16 15 17 19 20 18 16 16 16 17 18 19 20
20 20 20 20 20 20 20 20 20 21 21 21 21 21 21 21 22 22 21 19 21 22 22 22 22 22 22 21 20 19 19 18 18 17 16 15 14 13 13 12 12 11 10 10 9 7 6 5 5 4 3 3 3 3 3 3 2 2 2 2 2 3 3 3 4 4 5 6 8 9 11 12 12 12 15 17 19 21 22 21 20 20 23 25 26 25 24 24
21 21 21 21 22 22 22 22 22 22 23 23 23 22 23 23 22 22 21 20 21 21 21 21 20 19 18 18 17 16 15 14 13 13 12 11 11 10 10 9 9 8 6 6 4 3 3 3 3 3 2 3 2 2 3 2 2 3 2 2 2 2 2 2 2 3 4 7 9 11 13 15 16 16 18 22 25 25 22 23 24 27 30 32 34 34 32 30
23 23 23 23 23 23 23 23 23 24 24 23 23 22 22 23 21 19 19 19 19 18 18 17 16 15 14 13 12 12 11 11 10 10 9 9 8 7 6 5 5 4 3 3 3 3 3 3 3 3 3 3 3 3 3 3 3 3 2 3 2 2 3 2 3 4 6 10 13 15 17 18 20 23 25 26 28 29 29 31 31 29 29 30 32 33 33 33
24 24 24 24 24 24 24 24 23 23 23 22 22 20 19 19 18 16 15 15 15 14 13 12 12 11 11 10 10 9 9 8 8 7 6 5 4 4 3 3 3 3 3 3 3 3 3 3 3 3 3 4 3 3 3 3 3 3 3 3 2 4 4 4 4 5 7 10 12 17 22 23 24 28 31 32 36 40 40 36 32 28 28 30 31 31 31 33
25 25 24 24 24 24 23 23 22 21 20 19 18 16 15 14 13 12 12 11 11 10 10 10 9 9 8 8 8 7 6 6 5 4 3 3 3 3 3 3 3 3 3 3 3 3 4 4 4 4 4 4 4 4 4 4 3 3 3 2 3 5 7 9 10 13 16 12 9 15 20 21 25 33 42 45 47 47 43 39 40 40 39 37 34 34 33 34
24 24 24 23 22 21 20 19 18 17 16 14 13 12 12 11 10 10 9 9 9 9 8 8 7 7 6 6 5 4 4 3 3 3 3 3 3 3 3 4 4 4 4 4 4 4 5 5 5 5 5 4 4 4 3 3 3 3 3 3 3 4 6 9 11 16 19 14 11 13 12 12 16 28 47 56 55 55 54 55 60 61 61 57 52 52 53 56
22 21 20 19 18 17 16 14 13 12 11 11 10 9 9 9 9 8 8 8 7 7 6 6 5 5 4 4 3 3 3 3 3 3 4 4 4 4 4 4 5 5 5 5 6 6 5 6 6 5 5 5 4 4 4 3 3 3 3 3 3 4 5 6 5 8 11 9 10 10 8 6 7 23 49 58 53 55 58 61 63 61 64 66 64 61 60 59
20 17 16 15 13 12 12 11 10 10 9 9 9 9 8 8 8 7 6 6 5 5 5 4 4 3 3 3 3 3 3 4 4 4 5 5 5 5 5 6 6 7 7 7 7 7 7 7 6 5 5 5 4 4 4 4 4 4 4 4 4 4 4 4 5 6 7 7 7 7 8 5 6 27 48 44 34 33 34 36 34 30 33 39 40 40 41 42
16 14 13 12 10 10 10 9 9 9 9 9 8 8 7 6 6 5 4 5 4 4 3 3 3 3 3 3 3 4 4 5 5 6 6 6 6 7 7 7 8 8 9 9 8 8 8 7 6 6 5 5 5 4 4 4 5 4 4 4 4 4 4 4 5 6 7 7 7 7 6 3 10 29 36 25 18 17 14 14 13 11 15 19 20 24 27 28
12 11 11 11 9 9 9 9 9 8 8 7 6 6 5 4 4 4 4 4 3 3 3 3 3 3 4 4 5 5 6 6 7 7 7 8 8 8 8 9 9 10 10 10 10 10 9 8 7 6 5 5 5 4 5 5 5 5 5 5 5 5 4 4 5 6 7 7 8 7 4 4 13 20 17 12 13 11 9 9 9 10 12 13 13 14 14 13
10 10 10 10 9 9 8 8 7 6 6 5 5 4 4 4 4 3 3 3 3 3 3 4 4 5 5 6 6 7 7 8 8 8 9 9 9 10 10 10 11 11 12 11 11 11 10 10 8 6 5 5 5 5 5 6 6 6 6 6 5 5 5 5 5 5 5 6 8 8 5 5 10 10 7 9 10 8 8 8 7 9 10 9 9 9 8 9
10 10 9 9 8 7 7 6 5 5 5 4 4 4 4 3 3 3 3 3 3 4 4 5 6 6 7 7 8 8 9 9 10 10 11 11 11 11 12 12 13 13 13 13 13 12 12 11 9 7 5 5 5 5 6 6 6 6 6 6 6 6 6 5 5 5 6 6 7 8 6 5 7 7 7 8 8 7 8 7 7 8 8 8 8 8 9 9
9 9 8 7 6 5 5 5 4 4 4 4 4 3 3 3 2 3 4 4 5 5 6 7 7 8 8 8 9 9 10 11 12 12 13 13 13 14 14 15 15 15 15 15 15 14 13 11 9 7 5 6 6 6 7 7 7 7 7 6 6 6 6 6 6 6 6 6 7 8 7 6 6 7 7 8 8 8 8 8 9 9 9 9 9 9 10 10
8 7 6 5 5 5 4 4 4 4 3 3 3 2 3 3 3 4 5 5 6 7 7 8 8 8 8 9 10 10 12 13 14 15 15 16 16 16 17 17 17 18 18 17 16 15 13 11 8 6 6 7 6 8 8 8 9 8 7 7 7 7 7 7 7 7 7 7 8 7 7 6 7 7 7 8 8 8 9 10 10 9 9 10 10 11 12 11
6 6 5 4 4 4 4 3 3 3 3 3 3 3 4 4 5 6 6 7 7 7 8 8 8 8 8 9 11 12 13 15 17 18 18 19 20 19 19 19 20 20 19 19 18 15 12 10 7 7 9 7 6 7 8 8 9 10 10 10 10 9 9 8 8 9 9 9 9 10 9 8 8 8 8 8 8 9 10 11 11 12 12 13 12 12 13 14
5 5 4 4 4 4 3 3 3 3 3 3 3 4 6 6 7 7 8 7 7 7 7 8 8 8 9 11 13 15 16 18 19 21 21 22 22 22 22 22 22 21 21 20 16 11 9 9 8 8 12 13 10 11 13 12 12 12 12 14 14 14 14 13 13 15 16 14 13 15 15 10 9 10 10 10 11 11 11 13 14 15 15 16 17 16 16 17
4 4 4 3 3 3 3 3 3 3 4 4 5 6 7 8 7 7 7 6 6 7 7 7 8 9 11 13 16 18 20 21 22 23 24 25 24 24 24 24 23 23 21 17 11 8 7 8 8 8 12 16 13 12 17 18 17 17 15 14 17 18 18 17 18 22 25 23 20 21 23 19 17 18 18 16 16 17 18 19 18 17 18 20 22 21 20 20
4 4 3 3 3 3 3 3 4 5 6 6 7 7 7 6 5 5 5 5 5 6 6 7 9 10 12 13 16 19 21 24 26 26 27 27 26 26 25 25 25 23 19 13 8 7 7 8 8 7 9 14 13 11 14 17 18 19 15 13 15 19 18 16 18 23 28 29 27 26 27 25 24 27 28 26 26 26 24 23 23 25 26 26 27 26 23 22
3 3 3 3 4 4 5 6 6 8 8 7 6 6 5 5 5 5 5 5 6 6 7 8 9 10 12 14 17 21 23 26 28 28 28 28 27 27 26 25 24 20 16 12 8 7 8 8 9 8 8 12 14 11 12 14 14 16 17 15 16 18 18 16 18 22 27 30 29 28 27 25 26 31 33 30 29 29 28 30 34 35 34 33 32 30 26 25
3 4 3 4 5 6 7 8 8 7 7 5 5 4 4 4 5 6 6 6 7 7 8 9 11 13 17 20 23 26 26 26 26 25 26 26 26 26 25 23 21 18 14 12 10 9 9 10 10 8 8 11 13 11 10 11 12 15 18 18 18 20 21 20 22 24 28 31 31 31 30 24 24 33 36 35 37 38 36 39 41 39 36 34 33 31 28 26
3 4 5 6 7 7 7 7 6 5 4 4 4 4 4 5 5 6 6 7 8 10 11 14 17 21 24 27 29 29 28 26 24 23 23 24 24 23 22 20 18 16 14 13 12 11 10 10 11 10 9 10 12 12 11 12 14 18 22 23 23 26 25 25 27 29 33 34 32 34 36 28 28 39 44 44 45 43 39 40 39 37 35 33 30 27 25 24
5 7 8 9 8 7 6 5 4 4 4 4 4 4 5 6 7 9 10 12 13 16 19 22 25 28 29 31 30 28 27 25 24 24 23 23 24 23 22 20 17 15 14 13 13 12 11 11 11 12 11 10 12 13 12 12 14 20 27 29 30 33 32 30 31 31 34 36 37 43 45 38 39 47 48 46 44 40 39 38 36 35 33 28 25 25 27 27
8 9 9 8 6 5 5 4 4 4 4 4 5 7 9 11 13 15 17 19 21 24 26 28 29 30 31 30 28 25 24 24 23 24 23 24 25 26 25 22 18 15 13 12 11 12 12 12 14 15 13 11 13 14 12 12 14 20 30 36 38 39 35 30 28 28 32 40 51 56 51 45 46 48 47 43 39 38 37 33 35 41 36 28 32 42 47 46
Wind_Speed
22 21 20 18 16 15 15 15 15 15 14 14 13 13 13 14 14 13 12 11 10 9 8 8 8 8 8 8 8 6 5 5 5 6 7 8 8 8 7 6 6 6 6 6 6 6 6 6 6 6 6 6 6 6 6 6 6 5 5 4 4 4 4 4 5 6 7 9 10 11 12 13 14 15 15 16 16 17 17 17 17 16 16 17 17 17 18 18
22 21 19 18 17 16 15 15 15 15 15 14 14 14 14 14 14 13 12 10 9 9 9 8 8 8 8 7 6 6 7 8 8 8 9 8 8 7 7 7 7 8 8 7 7 7 7 7 7 7 7 7 8 7 6 6 6 5 5 4 3 3 4 4 5 7 8 9 11 12 13 14 14 15 16 16 17 17 17 17 17 17 17 17 18 18 18 18
24 22 20 19 19 18 17 16 15 15 15 15 15 15 15 14 13 12 11 9 9 10 9 8 8 7 7 7 7 8 9 9 9 8 8 7 7 7 8 8 8 9 8 7 8 8 8 8 8 8 8 8 8 7 6 5 5 4 3 2 2 2 3 5 6 8 9 10 11 12 14 14 15 15 16 17 17 17 17 17 17 17 18 18 18 18 19 19
24 24 22 21 20 20 19 17 16 17 17 16 16 16 15 14 13 11 10 10 10 10 9 8 8 8 8 9 9 10 10 9 8 7 7 7 8 8 9 9 9 8 8 8 9 9 9 9 9 8 8 7 7 6 5 4 3 2 1 1 1 2 4 6 7 9 10 11 12 13 14 15 16 16 17 17 18 18 18 18 18 18 18 19 19 19 19 20
22 22 22 21 21 21 21 19 19 18 17 17 16 16 15 13 12 10 10 11 10 9 9 9 9 10 10 10 10 10 10 8 8 8 8 9 10 10 10 9 9 9 9 9 9 9 9 9 9 8 7 6 6 4 4 3 2 1 1 2 3 4 5 7 9 11 12 13 14 15 15 16 17 17 18 18 19 19 19 19 19 19 19 19 19 20 21 21
18 18 19 19 20 21 22 21 20 19 18 17 16 15 13 11 10 11 11 10 10 10 10 10 10 10 10 10 10 10 9 8 9 10 10 11 11 10 10 10 10 10 10 10 10 9 8 8 8 7 6 6 5 4 3 3 2 2 2 3 5 6 8 10 11 13 14 14 15 16 16 17 18 19 19 19 20 20 20 20 20 20 20 20 21 21 22 22
15 15 16 16 17 19 20 20 19 18 17 15 14 12 11 11 11 11 11 11 11 11 11 11 10 10 10 10 10 9 8 9 11 12 12 12 11 10 10 10 10 9 9 9 9 8 8 7 7 6 6 5 4 4 3 3 3 3 4 6 7 9 10 12 13 14 15 15 16 17 18 18 19 20 20 20 21 21 21 21 21 21 21 22 22 23 23 24
14 14 14 14 15 15 16 17 17 15 13 12 11 11 11 12 12 12 12 12 12 12 11 10 9 9 9 10 10 10 10 11 12 12 12 11 10 11 10 10 9 8 8 8 8 7 7 6 6 6 5 4 4 4 4 4 5 5 7 8 9 11 12 13 14 15 16 17 18 19 19 20 20 21 21 21 21 22 22 22 22 22 22 23 23 24 25 25
14 14 13 13 14 14 14 14 13 12 12 12 12 12 12 13 13 13 13 13 12 12 11 10 10 10 10 11 11 12 12 12 11 11 11 11 11 10 9 8 8 7 7 7 6 6 6 5 5 5 5 5 4 5 5 5 7 8 9 10 11 13 14 15 16 17 17 18 19 20 21 21 21 22 22 23 23 23 23 23 23 23 23 24 24 25 26 26
14 14 14 14 14 14 14 14 13 13 13 13 13 13 14 14 14 14 14 14 13 12 11 11 11 12 13 13 13 13 13 12 11 11 11 11 10 9 8 7 7 6 6 6 6 6 5 5 5 5 5 5 6 6 6 7 9 10 11 12 13 14 15 16 17 18 19 20 21 21 22 23 22 23 24 24 24 24 24 24 24 24 24 25 25 26 27 28
17 17 16 16 16 15 15 14 14 14 14 14 14 14 15 15 16 15 15 14 13 13 13 13 13 14 14 15 14 13 14 13 12 11 11 10 8 7 6 6 6 5 5 5 5 5 5 5 6 6 6 7 7 8 9 10 11 12 13 14 15 16 18 18 19 21 21 22 23 23 24 25 24 24 26 26 25 25 25 25 25 25 26 26 26 27 28 29
18 18 17 17 16 16 15 15 15 15 15 15 15 16 16 17 17 16 16 15 15 14 15 15 16 16 16 15 14 14 14 13 12 11 10 8 6 5 5 5 4 4 4 4 5 5 5 6 7 7 8 8 9 11 12 12 13 14 15 16 17 18 20 21 21 23 24 24 26 25 25 27 26 24 26 28 27 27 26 26 26 26 27 27 28 28 29 30
19 18 18 17 17 17 17 16 16 15 16 16 17 18 18 18 18 17 17 16 17 17 17 17 17 17 16 15 14 14 14 12 11 9 8 6 5 4 3 3 3 3 3 4 5 5 6 7 8 9 10 11 12 13 14 15 16 17 18 19 20 20 21 23 24 25 25 26 28 27 25 28 31 27 25 28 29 29 28 28 27 27 27 28 29 29 30 31
22 21 21 20 20 19 19 18 18 19 20 21 21 21 21 20 19 19 19 19 19 19 19 18 17 17 16 15 15 14 12 11 9 7 6 5 4 2 1 1 2 2 3 4 5 6 7 8 9 10 12 13 14 15 16 18 18 19 20 21 22 22 22 23 26 27 27 26 29 31 27 26 32 33 28 28 29 30 29 29 29 29 28 29 30 30 31 32
27 28 28 28 28 28 27 27 27 27 27 26 25 24 24 23 22 22 22 21 21 20 19 18 17 16 16 15 14 12 11 9 8 6 5 4 2 1 1 1 2 3 4 5 6 7 9 10 11 13 14 15 16 17 19 20 21 22 23 23 24 25 26 26 26 29 30 29 29 32 31 26 30 36 34 31 30 30 30 30 31 31 30 31 31 32 32 34
32 33 35 36 37 36 35 34 33 32 30 29 28 27 26 25 25 24 23 22 21 20 19 18 17 16 15 13 12 10 9 8 7 6 5 4 3 2 2 3 4 4 6 7 8 9 11 12 14 15 16 18 19 20 20 21 23 24 25 26 26 27 29 29 29 30 32 33 31 33 33 28 28 34 37 37 35 32 30 29 31 32 32 32 33 34 34 35
34 36 38 38 39 38 37 36 35 33 32 31 30 29 28 27 26 24 23 22 21 19 18 18 17 14 13 12 10 9 9 8 7 6 5 4 3 3 4 5 5 6 8 9 10 11 12 14 16 17 18 20 21 22 23 24 25 26 27 28 29 30 31 33 32 32 34 35 33 34 35 31 27 30 36 40 40 37 32 29 30 33 34 35 35 36 35 36
36 37 38 38 38 38 37 36 35 34 33 32 31 30 29 28 26 25 23 22 20 18 17 17 16 12 11 11 10 10 9 8 7 6 5 5 5 5 6 6 7 8 9 10 11 13 14 15 17 18 20 21 23 24 25 27 28 29 30 31 32 33 33 35 35 35 37 37 35 36 38 34 30 30 33 38 41 40 37 33 31 32 34 36 37 37 37 37
39 39 39 38 38 37 36 36 35 34 34 33 32 31 29 28 26 25 24 22 20 17 15 14 13 11 11 11 11 11 9 8 7 7 6 7 7 7 8 8 9 10 11 12 13 14 16 17 18 19 21 23 24 25 27 28 30 31 32 33 34 35 35 37 38 38 39 40 38 39 40 37 34 33 33 36 39 41 40 37 34 33 34 36 38 39 39 39
41 41 40 39 38 37 36 35 34 33 32 31 30 28 27 27 26 24 22 19 17 15 14 13 12 12 12 12 11 9 8 7 7 8 8 8 8 9 10 10 11 12 12 13 14 16 17 19 20 21 23 24 25 26 28 29 31 32 33 34 36 37 37 38 39 40 41 42 41 42 43 40 37 36 35 36 39 41 41 38 36 37 37 38 39 40 40 40
41 40 40 39 38 37 35 34 33 32 31 29 28 26 24 24 24 23 21 18 15 14 14 13 12 12 12 11 9 8 7 7 8 9 8 9 9 10 10 11 12 13 13 15 16 18 19 20 21 23 24 25 26 28 29 31 32 34 35 36 38 39 39 39 41 41 43 43 42 43 44 41 39 38 37 36 37 40 42 40 39 38 39 40 40 40 40 40
40 39 38 37 36 35 34 33 31 30 29 28 26 24 23 22 21 21 20 17 15 15 14 12 12 11 10 9 8 8 7 8 9 9 8 9 10 10 11 12 13 14 15 17 18 19 20 21 23 25 26 27 29 30 31 33 35 37 37 39 40 41 41 41 42 43 44 44 43 44 45 42 40 40 38 35 33 36 40 41 40 39 40 41 41 42 42 41
38 37 36 35 34 33 32 31 29 28 27 25 24 23 22 21 20 21 20 17 15 15 13 12 11 10 9 9 8 8 8 8 9 9 9 9 10 11 12 14 15 16 17 19 21 22 23 24 26 28 29 30 32 33 34 35 37 39 39 40 40 42 43 43 43 43 44 46 45 44 44 42 40 40 39 37 35 35 38 39 39 40 40 42 42 42 42 42
36 35 34 33 32 31 30 28 27 26 25 24 23 23 22 21 21 21 19 16 14 14 13 12 11 10 9 9 9 9 9 8 9 10 10 11 12 13 14 16 18 19 20 21 22 24 25 27 29 30 32 33 34 35 36 38 38 40 41 41 42 42 44 44 44 44 44 45 46 45 45 42 40 40 40 41 40 39 39 40 39 39 39 40 41 42 42 44
33 32 31 30 29 28 27 26 25 24 24 23 23 22 21 21 21 20 18 16 14 13 12 11 11 10 10 9 10 10 10 10 11 12 13 13 14 16 16 18 20 21 22 23 25 26 27 29 31 32 34 35 36 37 39 40 39 40 41 42 43 43 44 45 45 46 45 45 46 47 48 45 42 41 39 40 43 42 41 41 41 42 42 41 42 43 44 46
30 29 29 28 27 26 25 25 24 23 23 24 23 22 21 21 19 18 17 15 14 13 13 12 11 11 10 10 11 11 11 11 13 13 14 15 16 17 18 20 22 23 24 25 27 28 29 31 32 34 35 36 38 39 39 41 41 41 42 43 44 45 45 46 46 47 47 47 47 47 50 48 45 41 38 39 43 43 42 41 42 45 46 46 46 46 47 48
29 28 27 27 26 25 25 25 24 24 24 23 22 21 21 19 18 16 14 12 13 13 12 11 11 11 11 11 11 12 12 13 14 14 15 16 18 19 20 22 24 25 26 27 29 30 31 33 34 35 37 38 39 40 41 43 43 44 45 46 46 47 47 47 48 50 50 51 49 48 50 50 48 43 39 39 43 44 42 41 43 46 48 48 49 49 49 48
28 28 27 26 26 25 25 25 24 23 23 22 21 20 19 17 16 14 12 11 12 12 11 11 11 11 12 12 12 12 13 14 15 16 17 18 20 22 23 24 26 27 28 30 32 33 34 35 36 38 39 41 42 44 45 46 47 48 48 49 49 50 50 51 52 52 53 54 52 50 51 52 51 45 39 39 42 43 42 42 46 49 50 51 51 50 49 48
27 27 26 25 24 24 24 23 22 21 20 19 18 17 17 15 14 13 11 11 11 11 11 12 12 11 11 12 13 14 15 16 17 19 20 22 23 24 25 27 28 29 30 32 33 35 37 38 39 41 42 43 45 46 47 48 49 49 50 51 51 52 52 53 54 54 54 55 53 52 53 54 53 47 42 43 44 44 44 45 48 50 51 51 49 47 47 47
25 25 24 23 22 22 21 20 20 19 18 17 16 15 14 14 13 12 11 11 11 11 12 12 12 12 13 14 15 17 18 19 20 21 23 24 25 27 28 29 30 32 32 33 35 36 38 39 40 41 42 43 44 44 46 47 48 49 50 51 51 51 53 53 54 54 54 53 52 52 51 52 53 49 46 46 47 47 48 48 49 48 47 46 45 45 47 48
23 23 22 21 20 20 19 18 18 17 16 15 15 13 13 13 12 11 12 12 12 12 12 13 13 14 15 17 18 19 21 22 23 24 26 27 28 29 30 31 31 33 34 35 36 36 37 38 39 40 41 42 43 44 46 47 49 50 51 52 52 52 53 53 53 54 52 50 49 48 47 47 48 47 46 46 47 49 49 48 47 45 43 43 44 47 50 51
21 21 20 19 19 18 17 17 16 15 14 14 13 13 12 12 11 12 13 13 13 13 14 14 16 17 18 19 21 22 23 24 25 27 28 29 30 32 33 33 34 35 35 35 36 36 37 38 39 40 42 43 44 45 46 48 49 51 52 53 54 54 53 52 51 50 48 46 45 45 45 44 43 43 44 46 47 49 48 47 46 46 46 46 48 49 50 50
19 19 18 17 17 16 16 15 14 13 12 12 12 12 12 12 12 14 14 14 15 15 16 17 18 19 20 22 23 24 25 27 28 29 30 31 32 33 33 34 35 35 36 36 37 37 38 39 40 41 43 44 46 47 48 49 50 51 51 52 53 53 52 51 49 48 47 45 44 43 43 43 40 40 43 45 46 47 48 47 46 46 47 48 48 49 48 48
17 16 16 15 14 14 13 13 12 12 12 12 12 13 14 14 15 16 16 16 17 18 18 20 21 22 23 24 25 26 28 28 29 30 30 31 31 32 32 33 34 35 36 37 37 38 40 41 42 44 45 45 47 48 49 49 49 49 49 50 49 48 47 47 47 47 46 46 45 43 42 41 40 40 42 44 44 45 48 49 47 45 46 47 48 48 48 48
15 14 13 13 12 12 12 12 12 12 13 14 14 15 15 16 17 18 18 18 19 20 20 21 22 23 25 26 26 27 27 28 28 29 29 30 31 32 33 34 35 35 36 37 38 39 40 42 43 44 44 45 46 47 48 48 48 47 47 47 46 45 44 44 43 43 45 46 45 43 42 40 38 36 39 41 42 44 48 50 49 47 47 48 48 49 49 50
13 13 12 12 12 12 13 13 13 13 14 15 15 16 17 18 19 19 19 20 20 21 22 23 24 24 25 25 25 26 27 27 28 29 30 31 32 33 34 35 36 37 38 39 40 40 40 40 42 43 43 45 46 46 46 46 46 46 45 45 44 43 43 43 43 42 44 46 45 43 42 39 33 31 35 39 41 43 46 48 48 47 46 47 49 51 51 52
12 12 13 13 13 13 14 14 14 15 15 16 17 17 18 19 19 20 21 21 21 22 23 23 23 23 23 24 25 26 27 28 29 30 32 33 33 34 35 36 37 38 39 39 40 40 40 40 41 42 43 44 45 45 45 45 45 46 46 45 45 44 43 45 47 46 45 47 45 42 43 42 35 33 37 38 40 43 44 47 48 48 47 48 50 51 52 53
12 12 13 14 13 14 14 14 15 16 17 18 18 19 19 20 20 21 21 21 21 21 21 21 21 22 23 25 26 28 29 30 31 32 33 34 35 35 36 37 37 38 38 39 39 40 41 40 40 42 43 44 44 45 45 45 45 46 47 46 47 47 47 47 48 49 48 49 48 44 45 43 35 33 39 40 42 45 45 47 49 49 49 50 51 52 51 52
12 12 13 14 14 15 15 15 17 18 18 19 19 19 20 20 21 21 21 20 20 19 19 20 22 23 25 27 28 30 31 31 32 33 34 35 35 36 36 36 37 37 38 38 39 39 41 41 40 40 41 43 44 44 45 45 45 46 47 47 48 47 47 47 47 47 47 48 48 46 48 44 33 32 40 40 42 44 44 45 45 46 47 48 49 49 49 48
12 13 14 14 15 15 16 17 17 18 19 19 20 20 20 20 19 19 18 18 19 19 21 22 24 26 28 29 30 31 32 32 33 34 34 35 35 35 36 36 36 37 37 38 38 39 40 41 40 38 38 41 44 45 45 45 45 45 46 46 46 45 45 46 45 45 46 47 46 45 48 44 34 34 39 39 40 42 43 43 43 43 44 45 45 46 46 46
13 13 14 15 16 16 17 18 18 18 19 19 19 19 18 17 17 17 17 18 20 22 24 26 27 28 29 30 30 31 32 32 33 34 34 35 35 36 36 36 36 37 37 38 38 39 40 41 41 40 39 41 43 44 45 45 45 46 45 44 45 45 45 46 45 45 45 45 43 44 46 43 37 38 39 39 42 42 43 44 43 43 44 44 45 46 46 47
13 14 14 15 16 16 17 17 17 18 18 18 17 16 16 16 16 17 19 21 23 25 27 27 28 29 29 30 30 31 31 32 32 34 34 35 35 36 36 36 36 36 37 38 39 40 41 42 42 42 41 43 44 45 45 45 45 44 44 45 45 45 46 47 48 47 46 44 43 45 47 44 41 42 42 42 45 45 45 47 47 46 46 46 47 47 47 48
13 14 15 15 16 16 17 17 17 17 16 16 15 15 16 17 18 20 22 24 26 27 27 27 28 29 29 30 30 31 32 32 33 34 34 35 35 35 35 36 36 37 37 38 40 42 43 44 45 43 42 43 44 45 44 44 44 44 44 45 46 46 46 47 49 50 49 47 46 48 49 45 43 45 46 46 47 47 48 50 50 50 50 50 50 50 49 50
14 15 15 15 16 16 16 16 15 15 15 15 15 16 18 19 21 23 25 26 27 27 27 27 28 29 30 30 31 32 33 33 34 34 35 35 35 35 35 36 36 37 38 39 41 43 44 45 46 46 45 45 46 45 44 43 43 43 44 45 46 46 47 47 48 50 50 48 48 51 51 48 45 46 47 48 49 49 50 52 53 54 54 54 54 54 54 54
15 15 15 15 15 15 15 15 14 15 15 16 17 19 21 22 24 25 26 27 27 27 28 29 29 31 31 32 33 33 34 35 35 35 35 35 35 35 36 36 37 38 40 41 43 43 43 44 45 47 48 49 49 48 46 45 44 42 42 45 46 46 46 47 48 50 50 49 49 50 53 52 49 48 49 50 50 51 52 54 55 55 56 55 56 57 57 57
14 15 14 14 15 15 14 14 14 15 17 18 20 21 23 24 26 27 27 28 28 29 30 30 31 32 32 33 34 34 35 36 36 36 36 35 35 36 36 37 39 40 41 42 43 42 42 43 45 46 46 47 49 48 47 47 46 44 43 44 47 48 47 48 50 51 52 52 51 50 53 56 53 51 52 53 53 54 54 55 55 56 56 56 55 57 58 59
15 15 14 14 15 15 14 15 16 17 19 21 22 24 25 26 28 28 29 30 30 31 31 32 33 33 34 35 35 36 37 37 37 36 36 36 36 37 38 39 40 41 42 42 42 42 43 44 45 46 46 46 48 49 48 48 48 47 48 49 50 51 51 52 53 55 56 57 56 54 55 57 56 55 57 57 57 57 57 58 58 58 59 59 59 60 61 62
15 14 14 15 15 15 16 17 18 20 21 23 25 26 28 29 30 30 31 31 32 32 33 34 35 36 37 37 38 38 38 37 36 36 36 36 37 38 39 40 40 41 42 43 43 43 45 46 47 47 47 47 50 51 51 51 51 51 52 54 55 56 56 56 57 58 59 61 62 61 61 61 60 60 61 62 63 63 63 64 64 64 64 64 64 65 65 65
14 14 15 15 16 16 17 19 20 22 23 25 28 30 31 32 32 32 33 33 34 35 35 36 37 38 39 39 39 39 39 38 38 38 38 38 39 39 40 40 41 42 43 44 45 46 47 48 49 50 50 49 50 53 54 55 55 55 54 56 59 59 59 59 59 60 62 64 65 65 66 65 63 64 66 66 67 67 67 68 69 69 69 69 68 69 69 69
13 14 15 16 17 17 19 21 22 24 26 29 31 33 34 34 34 34 34 35 36 36 37 38 39 39 39 39 39 40 40 40 40 40 40 40 40 40 40 41 42 43 45 46 47 48 49 50 51 53 54 52 52 55 57 58 59 58 56 57 60 61 61 61 62 62 65 66 66 66 68 68 66 66 68 68 68 69 70 70 71 72 73 72 72 71 71 72
14 15 16 16 17 19 21 23 25 28 31 33 34 35 35 35 35 35 36 37 37 38 38 39 39 39 39 39 40 41 41 41 41 41 40 40 40 41 41 42 43 44 46 47 48 50 51 52 53 55 58 57 56 57 60 60 60 59 57 58 60 61 61 62 63 64 66 68 67 67 69 70 69 68 69 69 70 71 72 72 74 74 74 75 75 74 74 75
14 15 16 17 18 21 24 27 29 31 34 35 36 36 36 36 37 37 38 38 39 39 39 39 39 39 40 40 41 42 41 41 40 40 40 40 40 41 42 43 45 46 48 49 50 52 53 55 56 58 60 61 59 61 62 63 62 60 58 58 58 59 62 64 65 66 68 69 68 69 71 72 71 71 72 73 74 74 74 75 75 75 76 77 76 76 77 78
Wind_Direction
213 212 211 209 206 204 204 202 197 194 196 199 202 209 216 222 228 233 234 231 228 222 214 207 206 207 209 210 206 201 188 170 165 168 169 167 166 166 162 166 173 167 153 140 133 128 121 110 104 103 103 106 108 106 107 106 106 104 101 97 86 72 53 36 22 15 13 9 7 6 4 2 359 358 358 358 359 359 359 358 355 353 350 347 346 345 345 343
213 212 210 209 206 200 197 196 193 193 197 202 206 213 219 225 228 229 227 223 217 206 200 201 202 202 201 199 189 173 157 152 157 162 163 160 157 156 150 152 151 139 131 127 122 114 105 102 107 114 118 119 118 119 120 118 117 114 111 104 89 66 36 16 3 0 360 358 358 358 358 358 356 355 354 355 356 356 356 356 354 351 349 348 346 344 343 340
215 212 209 206 204 199 196 193 191 194 200 205 210 216 222 224 225 224 219 210 200 193 193 195 193 190 185 175 162 153 151 152 155 156 155 148 144 141 135 134 130 124 121 116 110 106 107 113 120 127 129 129 130 132 132 129 130 126 126 114 74 28 5 357 351 351 352 351 349 349 350 351 351 350 350 350 351 352 352 352 351 349 347 346 345 343 341 339
214 213 210 206 203 200 198 195 196 201 207 211 215 219 222 222 221 215 203 192 188 185 185 181 176 172 164 157 152 149 150 151 150 146 142 136 130 127 124 123 121 116 111 104 105 112 121 128 133 137 138 139 142 145 145 145 152 157 172 226 313 321 328 336 337 339 341 343 342 341 342 343 344 344 345 345 346 346 347 347 346 345 344 343 342 340 338 337
209 209 208 206 203 201 200 200 203 207 211 214 217 221 221 219 213 197 184 181 179 172 168 165 162 159 153 151 150 149 151 148 142 135 130 124 120 120 120 119 115 110 108 109 117 126 133 139 141 145 148 151 157 161 164 167 182 200 230 278 309 320 321 325 327 329 331 332 334 334 335 336 338 339 340 340 340 341 340 341 341 340 339 338 337 337 336 335
198 199 200 201 200 199 200 203 206 210 212 215 218 220 216 208 191 176 172 170 163 158 158 157 155 153 150 149 147 147 148 141 132 126 122 118 118 120 118 114 111 112 119 124 133 139 143 148 151 156 160 166 174 181 188 200 221 247 284 306 317 322 322 322 322 323 325 326 327 328 329 331 332 333 334 334 334 336 335 335 335 335 334 333 333 332 332 331
177 181 185 189 192 195 199 203 207 210 212 213 212 207 197 182 169 162 159 155 152 151 153 153 151 148 146 144 143 143 141 132 124 121 121 120 121 119 113 111 113 122 130 137 145 150 154 160 166 172 178 188 202 211 221 245 268 283 302 312 316 319 319 318 319 319 321 322 323 324 325 326 327 328 328 329 330 330 331 330 330 330 330 329 328 328 327 327
155 162 169 174 180 185 191 197 201 203 200 193 187 180 172 162 154 150 149 148 147 149 150 149 144 139 138 139 142 141 134 126 122 123 122 119 114 110 109 113 122 133 141 150 158 162 169 178 186 192 201 213 224 237 256 276 291 300 309 313 314 315 316 316 316 316 317 319 319 320 322 322 323 324 324 325 326 325 326 326 325 326 326 326 325 325 325 324
144 150 155 159 163 168 174 178 181 178 172 167 165 162 156 148 145 146 146 144 145 146 144 139 136 137 139 141 142 135 127 124 122 120 114 107 105 105 112 122 133 144 153 162 170 176 186 195 204 213 226 238 249 263 279 292 302 308 310 311 312 312 312 313 313 314 315 316 317 317 318 319 320 320 320 322 322 321 321 321 321 322 322 322 322 322 322 322
135 138 141 143 146 150 154 158 160 159 157 156 155 151 145 141 143 144 143 142 141 139 135 135 138 140 140 138 133 127 122 119 114 108 103 103 105 110 121 135 146 157 165 175 185 193 204 214 228 242 255 265 274 281 290 297 302 306 307 308 309 308 309 310 311 311 312 313 314 316 315 316 317 316 316 319 319 318 318 317 318 318 318 319 319 319 319 320
124 126 128 131 135 140 145 151 154 154 152 149 146 142 137 138 140 140 138 137 134 131 132 134 134 133 130 126 123 119 115 108 103 100 100 103 109 120 135 149 159 169 181 194 204 216 229 239 253 264 274 281 286 291 295 298 301 302 305 305 305 306 306 307 308 309 310 310 311 314 313 312 315 315 314 316 316 315 315 314 315 315 315 316 316 316 316 316
119 121 125 130 135 141 147 151 152 150 145 139 136 133 132 134 135 134 133 130 127 126 126 125 123 121 120 118 115 110 105 100 99 99 103 109 114 130 149 161 172 188 204 217 230 243 253 262 271 276 282 287 290 295 296 297 299 299 301 302 302 305 305 305 306 307 308 308 308 311 311 309 311 314 313 313 314 314 313 312 311 311 312 313 313 313 313 313
117 121 126 133 140 146 149 150 147 139 130 126 126 127 128 128 129 127 125 123 121 119 118 117 116 116 114 110 106 101 98 98 98 100 109 118 123 137 158 176 191 216 231 244 257 265 270 274 279 282 288 292 293 296 295 296 297 298 300 301 301 303 303 304 305 305 306 306 307 308 310 309 309 311 311 310 312 312 311 310 309 309 309 310 310 310 310 310
111 113 117 123 129 135 136 134 128 121 118 119 120 121 122 122 121 119 118 116 115 114 113 112 111 109 106 102 98 96 99 101 101 104 113 120 123 132 158 202 235 262 263 271 277 279 283 285 288 291 293 294 295 296 295 297 299 300 300 300 301 302 301 302 303 303 304 305 305 306 309 309 307 308 309 308 308 310 309 308 306 307 307 307 308 308 308 307
104 105 107 110 112 114 114 113 111 110 110 110 111 112 113 113 113 113 112 111 110 110 108 106 105 101 97 96 95 96 101 105 107 110 110 105 93 69 19 332 308 298 293 296 296 295 297 296 296 298 297 298 299 298 298 301 303 303 302 301 301 302 301 301 302 302 302 303 304 304 306 309 306 306 307 306 305 307 308 307 305 306 307 306 306 306 306 305
103 104 103 103 103 104 104 104 104 103 102 102 103 104 105 105 106 106 105 105 104 103 102 101 99 94 91 94 97 100 105 105 104 100 87 73 55 32 4 343 324 314 311 308 307 306 306 304 304 304 303 302 301 300 302 304 305 304 303 302 302 302 302 302 302 302 301 302 303 302 304 308 308 307 306 306 305 306 308 307 304 305 306 305 305 305 305 303
102 102 102 101 101 101 101 101 101 100 100 100 100 100 100 100 99 99 98 98 98 97 98 97 93 89 92 99 102 103 98 90 81 73 63 53 39 17 358 345 329 320 315 313 313 311 310 309 308 307 306 305 305 305 307 307 305 303 302 301 302 302 302 301 301 301 300 301 303 302 303 307 309 306 304 305 306 308 309 306 303 304 305 304 304 304 304 303
99 100 100 100 100 100 101 101 101 101 101 101 100 99 98 96 95 94 94 92 91 91 91 90 90 90 100 103 97 88 77 67 59 49 42 32 20 5 354 344 334 326 322 321 319 316 315 312 310 308 308 309 309 309 309 307 306 304 303 302 302 302 302 301 301 301 300 300 302 302 302 306 308 305 302 303 305 307 308 306 303 303 303 303 303 303 303 302
97 97 97 98 98 99 100 100 100 100 100 100 99 99 98 96 93 90 88 86 85 85 86 89 93 93 97 93 84 78 70 61 52 39 28 20 10 359 351 343 339 332 325 324 322 320 318 313 311 310 311 311 310 309 307 306 305 304 304 303 302 302 302 301 302 302 301 301 303 303 303 307 309 306 304 302 303 305 306 306 305 303 301 301 301 301 301 302
96 95 95 95 94 94 94 94 93 93 93 93 92 93 95 95 92 88 84 83 84 87 89 93 94 91 87 82 76 71 63 57 45 28 14 6 359 352 346 340 337 329 322 322 322 321 318 314 313 312 311 310 308 307 307 306 305 304 304 304 303 303 303 302 303 303 303 303 306 305 305 309 310 308 307 304 303 304 304 305 305 304 302 301 300 299 300 301
93 92 91 90 90 89 88 87 86 86 86 86 85 85 87 89 91 91 88 87 90 91 92 90 87 82 78 73 66 55 42 36 28 14 359 351 345 341 338 333 328 323 321 322 322 321 318 314 313 311 310 309 307 307 307 307 307 306 306 306 306 306 305 306 306 307 306 306 308 307 308 310 310 309 309 306 304 304 304 305 305 304 303 301 299 297 298 300
88 87 86 86 86 85 85 85 84 84 84 85 86 87 88 89 92 92 88 86 90 88 85 81 74 70 66 58 50 38 24 19 13 358 345 341 337 333 331 329 327 325 323 322 321 319 314 311 311 311 310 309 308 307 308 309 309 309 309 309 309 309 309 309 310 310 309 308 309 308 308 311 310 309 309 305 301 300 300 302 303 303 302 299 297 296 296 298
85 84 83 83 83 84 84 84 85 85 86 87 89 90 90 90 90 88 82 79 81 79 74 71 65 61 57 48 39 28 19 14 6 355 346 339 337 333 330 330 330 327 323 320 319 316 313 311 311 312 311 310 309 309 310 311 312 312 312 312 312 312 311 311 310 310 311 310 310 309 309 311 311 309 307 304 299 297 298 301 302 302 301 299 297 297 297 299
85 84 84 84 84 84 85 85 86 87 89 89 89 88 87 86 84 81 78 74 74 74 71 68 64 59 53 46 37 28 21 12 2 358 350 340 337 334 330 329 328 325 321 317 317 316 313 313 313 313 312 312 310 311 311 312 313 314 313 312 312 312 312 312 311 309 310 310 311 310 308 309 311 310 309 306 303 301 302 303 303 300 299 298 296 296 297 298
85 85 85 85 85 86 87 88 88 88 88 87 85 83 82 80 78 78 76 72 71 71 69 66 63 57 47 40 31 22 13 5 356 350 346 340 335 330 326 324 323 322 318 315 314 314 313 313 313 313 313 313 312 313 313 313 314 315 314 313 312 312 312 312 311 309 309 309 310 311 308 307 311 313 313 308 304 304 304 303 301 298 297 296 294 294 297 298
85 85 86 86 86 86 87 86 85 84 83 81 80 79 77 76 75 75 74 71 69 66 61 57 54 47 35 25 17 7 359 354 348 342 338 335 331 326 322 319 318 319 317 314 314 314 314 314 314 314 315 316 315 315 315 315 315 314 314 313 313 313 312 312 311 310 310 310 311 312 310 309 310 311 311 308 304 304 305 304 301 298 298 297 296 296 298 299
82 82 82 82 82 82 82 81 80 79 78 77 75 74 72 70 69 69 68 66 62 57 50 43 38 30 20 12 4 355 348 344 340 335 331 327 325 322 318 316 317 318 318 316 316 317 317 318 318 318 318 318 317 317 316 316 315 315 314 314 314 313 312 312 311 311 310 310 311 310 307 307 307 307 309 308 305 304 304 302 300 299 299 299 298 300 301 302
80 79 79 78 77 77 76 75 74 73 72 71 69 67 65 62 60 58 56 53 49 42 35 28 21 14 7 1 354 345 340 335 330 327 323 321 321 320 319 319 319 320 321 321 322 323 322 321 321 320 319 319 318 318 317 316 316 315 314 314 313 312 312 311 310 310 309 308 309 306 304 304 304 307 312 311 307 306 304 302 301 301 301 301 303 304 304 303
78 78 77 76 75 73 71 70 69 68 66 65 63 61 58 54 51 45 39 38 35 26 21 17 10 2 354 347 342 335 333 329 325 323 322 322 323 323 322 322 322 324 326 327 326 325 323 322 321 320 320 320 319 319 318 318 316 315 314 313 313 312 310 310 308 307 306 306 307 306 306 306 306 310 316 312 308 307 306 304 304 304 304 305 306 306 304 301
78 77 76 75 73 71 69 67 65 64 62 59 57 55 53 47 42 36 27 27 24 14 9 5 357 351 342 337 334 332 331 329 328 327 326 326 327 326 325 326 327 326 326 325 324 325 325 325 324 324 323 323 323 323 322 321 319 318 316 314 313 311 310 309 307 306 306 307 308 309 311 312 311 313 314 311 309 308 306 306 306 308 308 307 305 303 302 301
78 76 74 73 71 69 67 63 61 60 57 54 50 46 44 38 31 25 18 16 12 4 359 352 346 343 339 337 336 335 334 333 332 330 329 329 328 327 326 325 324 323 323 324 325 328 330 329 328 327 326 326 325 325 323 322 321 319 317 315 313 311 310 309 308 307 309 311 312 313 313 313 315 315 313 312 311 309 309 310 310 311 310 307 304 303 304 304
75 73 71 69 68 65 63 60 57 54 50 47 41 35 33 28 17 12 11 8 2 357 354 349 346 344 342 340 339 337 335 333 332 330 329 328 327 326 325 324 323 324 325 328 330 332 331 330 329 328 328 327 326 325 325 324 322 320 319 317 315 313 312 310 310 310 312 313 314 314 313 313 315 316 315 314 313 313 313 313 314 314 312 309 307 306 307 308
71 70 68 66 64 61 59 55 51 47 42 37 30 24 22 17 8 7 6 3 360 357 354 351 348 344 342 340 337 335 333 331 330 328 328 329 330 330 331 332 332 332 332 333 333 332 331 330 330 330 329 329 329 329 328 327 326 323 322 320 319 318 317 316 315 315 314 313 314 315 316 315 317 319 318 316 316 316 315 314 315 315 314 312 310 310 310 310
69 66 64 61 58 55 52 47 41 36 32 27 21 17 16 11 8 8 5 2 358 354 351 347 344 341 338 336 334 332 332 331 331 332 333 335 336 337 337 337 337 336 335 334 333 334 334 333 333 333 333 333 333 332 331 331 329 327 326 325 324 324 324 324 323 322 320 317 317 318 318 320 324 326 321 318 319 318 315 316 318 318 316 315 313 313 312 312
66 61 57 53 49 45 40 35 31 27 24 21 17 15 12 8 6 5 0 356 352 348 345 342 339 337 336 334 334 334 335 337 339 340 340 340 339 339 338 337 336 335 334 334 334 335 336 337 336 336 335 334 334 334 334 334 333 332 331 330 330 330 329 328 328 326 323 322 323 324 324 327 331 329 322 319 321 319 317 318 320 319 319 318 316 315 314 314
61 54 48 43 38 34 30 27 24 21 20 17 12 10 6 2 0 357 353 349 346 344 340 338 337 337 337 339 340 342 342 343 344 342 341 340 339 338 337 336 335 334 333 333 333 334 337 338 336 335 335 335 336 337 338 338 337 337 336 335 335 335 333 330 329 328 327 327 330 331 330 332 335 330 322 320 320 318 317 318 318 318 319 318 316 315 315 315
51 44 39 36 32 30 26 23 19 15 13 9 4 2 359 356 353 350 347 345 342 340 338 340 341 342 344 346 346 346 346 345 343 341 339 338 338 336 335 334 333 332 333 333 334 334 336 337 335 334 335 336 338 340 340 341 342 341 340 340 339 338 337 336 334 334 334 332 333 335 333 338 343 333 322 320 318 317 316 316 316 318 319 318 316 316 317 318
39 35 34 31 27 25 20 15 13 9 5 360 357 356 353 350 348 345 343 342 341 343 345 347 348 348 349 349 347 346 345 343 341 339 337 336 335 334 334 332 332 332 333 334 335 335 335 336 337 336 336 337 339 340 342 344 344 343 342 341 341 341 341 342 340 338 337 334 335 337 338 345 348 331 321 322 320 318 318 318 319 321 322 320 319 319 319 320
31 27 28 25 20 17 10 6 7 3 357 354 353 351 348 345 344 343 344 346 348 352 354 353 352 350 349 347 346 345 343 341 338 336 335 334 333 333 332 331 331 333 334 334 335 336 336 337 339 338 337 337 338 341 343 344 343 343 341 341 342 343 342 343 342 340 337 335 337 338 342 350 350 331 326 326 323 322 323 325 326 327 325 323 322 323 323 324
25 20 19 17 13 10 4 2 1 354 350 349 348 346 345 346 347 349 354 356 357 357 355 353 351 349 347 345 344 343 340 338 336 334 333 332 331 331 330 331 332 333 334 335 336 337 337 338 340 339 336 336 339 341 343 342 341 341 341 341 342 341 340 341 341 340 337 336 337 335 340 350 347 332 331 329 326 327 328 329 331 331 328 326 326 326 327 327
18 14 13 11 7 3 360 358 353 347 346 346 346 347 350 353 357 1 4 2 358 355 353 351 349 346 344 343 341 340 338 336 334 333 331 331 330 330 331 332 332 333 334 335 336 337 338 339 341 339 336 337 340 341 341 341 340 340 340 339 338 338 337 337 337 338 337 336 335 331 335 346 343 333 333 329 326 328 328 327 329 329 328 326 325 325 325 325
12 9 7 3 0 357 354 351 347 346 348 350 353 356 1 4 6 6 2 358 355 352 350 348 346 343 341 339 337 336 335 334 333 332 331 330 330 331 331 332 332 333 335 336 338 339 339 340 342 340 338 339 340 340 340 340 339 338 336 335 334 334 334 333 332 333 334 334 332 327 329 338 339 333 332 328 325 326 326 325 326 325 325 323 321 321 321 320
7 4 360 356 355 351 349 350 352 355 358 360 3 6 8 9 5 360 356 353 351 349 346 344 341 339 337 335 334 333 333 333 332 332 331 331 331 332 332 332 333 334 337 338 340 342 341 341 342 341 338 338 340 340 340 340 338 336 333 332 331 329 329 329 327 327 329 329 328 324 324 330 334 329 326 325 323 324 324 322 321 321 320 319 318 318 317 317
1 357 354 354 352 350 353 360 3 6 7 7 8 9 8 4 358 354 352 349 347 344 341 338 336 335 333 333 332 332 332 333 333 333 332 332 333 333 333 333 335 337 339 340 342 343 342 341 341 340 338 339 341 340 339 340 339 336 334 331 330 327 326 325 324 324 325 325 324 323 321 322 326 324 321 321 321 321 321 319 318 318 318 317 316 315 315 315
358 356 357 357 354 356 5 9 10 12 10 7 6 5 2 358 354 350 347 344 341 339 336 334 333 332 332 333 333 333 334 334 334 334 333 333 333 333 334 335 337 338 340 341 342 342 341 340 340 340 339 341 342 340 339 339 338 338 336 332 330 328 327 325 324 325 325 323 323 323 321 319 322 323 320 320 320 319 319 318 318 317 316 316 316 314 314 313
358 0 3 2 1 9 15 13 11 12 6 2 1 359 356 353 348 345 342 339 337 335 333 332 332 332 332 333 334 335 335 335 335 335 334 334 333 334 335 336 337 339 340 340 340 340 339 339 339 339 339 340 339 337 336 336 336 337 335 332 329 327 327 326 326 326 325 322 322 324 321 320 323 324 321 319 319 319 319 318 317 316 315 315 314 312 311 311
4 7 7 6 9 15 17 11 10 7 0 357 356 354 351 348 345 342 340 337 334 333 332 331 330 331 331 332 334 335 336 336 336 335 335 334 334 335 335 337 338 338 338 337 337 338 337 337 338 337 337 337 336 334 333 332 333 334 333 332 329 326 325 326 326 325 324 322 322 324 322 321 324 324 321 319 319 318 318 317 316 316 316 315 314 313 311 310
12 11 9 10 13 16 13 8 5 0 356 353 352 351 349 345 342 340 337 335 333 332 331 331 330 331 332 333 334 335 335 336 336 335 335 335 335 336 336 337 337 336 335 335 335 336 335 335 335 335 335 336 334 332 330 330 330 332 332 331 327 325 325 326 325 324 322 320 322 324 322 322 323 322 320 319 319 318 318 318 318 318 317 316 315 314 312 310
14 12 11 11 12 10 5 2 359 356 353 351 350 348 345 342 341 339 337 335 334 333 332 332 332 333 334 335 335 335 335 336 336 335 335 335 335 336 336 336 336 334 334 333 333 333 333 333 332 331 332 335 333 330 329 328 329 331 331 329 326 325 325 325 324 323 321 320 322 322 321 320 322 321 319 319 319 319 319 318 317 316 315 315 314 312 311 310
10 11 11 8 5 3 0 359 356 353 350 349 348 345 343 341 340 339 337 337 335 334 334 334 334 335 336 336 336 337 337 337 336 336 336 336 336 336 335 335 334 333 333 332 331 331 331 331 330 328 330 333 332 329 328 328 329 330 331 329 325 324 325 324 323 323 320 320 321 321 319 319 320 320 318 318 317 317 317 316 315 314 314 313 311 310 309 309
10 10 7 2 0 359 358 356 352 349 348 347 345 343 342 341 340 339 338 338 337 336 336 336 337 337 338 338 338 338 337 337 337 337 337 337 336 335 334 333 333 332 332 331 330 329 329 328 328 326 328 331 331 328 328 328 329 331 331 329 325 324 324 323 322 321 320 319 320 319 317 318 319 319 317 316 315 315 315 314 314 313 312 311 310 309 309 308
11 7 0 357 356 356 354 351 348 347 346 344 343 342 342 342 341 341 340 339 339 338 338 338 339 340 340 340 339 339 339 338 338 337 337 336 334 333 332 332 332 332 331 330 329 328 328 327 327 326 327 330 330 327 328 329 331 333 333 329 325 323 322 320 320 321 320 320 319 318 316 317 318 317 316 315 314 314 314 314 314 312 310 310 309 309 307 306